EW5899 Weather Reports


Display with metric or nautical units.
time (UTC)temp
F
wind
direction
speed
MPH
gust
MPH
rain 1hr
in
rain 24hr
in
rain mn
in
humidity
%
barometer
mb
20191117173526 32 89 3.0 10.0 0.00 0.00 0.00 56 1025.7
20191117173025 32 91 3.0 10.0 0.00 0.00 0.00 56 1025.9
20191117172524 31 98 3.0 10.0 0.00 0.00 0.00 56 1026.2
20191117172024 31 103 3.0 11.0 0.00 0.00 0.00 56 1026.3
20191117171524 31 115 3.0 11.0 0.00 0.00 0.00 57 1026.4
20191117171024 32 62 2.0 10.0 0.00 0.00 0.00 55 1026.6
20191117170522 31 102 3.0 10.0 0.00 0.00 0.00 55 1026.7
20191117170022 31 92 3.0 10.0 0.00 0.00 0.00 54 1026.9
20191117165522 31 101 2.0 9.0 0.00 0.00 0.00 54 1027.2
20191117165022 30 27 3.0 9.0 0.00 0.00 0.00 55 1027.3
20191117164522 30 74 2.0 8.0 0.00 0.00 0.00 54 1027.4
20191117164022 30 112 2.0 7.0 0.00 0.00 0.00 55 1027.6
20191117163522 30 82 2.0 8.0 0.00 0.00 0.00 56 1027.8
20191117163021 29 113 2.0 8.0 0.00 0.00 0.00 55 1027.9
20191117162520 30 64 2.0 7.0 0.00 0.00 0.00 55 1028.0
20191117162020 29 106 2.0 7.0 0.00 0.00 0.00 57 1028.1
20191117161520 29 84 2.0 7.0 0.00 0.00 0.00 57 1028.2
20191117161020 29 328 2.0 9.0 0.00 0.00 0.00 56 1028.2
20191117160520 28 77 3.0 9.0 0.00 0.00 0.00 56 1028.4
20191117160020 28 101 3.0 9.0 0.00 0.00 0.00 57 1028.6
20191117155520 28 103 3.0 9.0 0.00 0.00 0.00 56 1028.6
20191117155020 27 85 3.0 11.0 0.00 0.00 0.00 57 1028.7
20191117154520 27 75 3.0 11.0 0.00 0.00 0.00 57 1028.7
20191117154019 27 23 3.0 7.0 0.00 0.00 0.00 57 1028.7
20191117153518 27 83 2.0 8.0 0.00 0.00 0.00 57 1028.6
20191117153018 26 114 2.0 8.0 0.00 0.00 0.00 58 1028.7
20191117152518 26 61 2.0 7.0 0.00 0.00 0.00 57 1028.6
20191117152018 26 86 2.0 8.0 0.00 0.00 0.00 58 1028.7
20191117151516 26 82 3.0 8.0 0.00 0.00 0.00 58 1028.8
20191117151016 25 114 4.0 12.0 0.00 0.00 0.00 58 1028.8
20191117150517 25 80 2.0 12.0 0.00 0.00 0.00 57 1028.9
20191117150016 26 68 1.0 7.0 0.00 0.00 0.00 58 1029.0
20191117145515 25 65 2.0 8.0 0.00 0.00 0.00 57 1029.1
20191117145015 26 89 1.0 8.0 0.00 0.00 0.00 58 1029.1
20191117144514 25 121 2.0 8.0 0.00 0.00 0.00 60 1029.1
20191117144014 25 63 2.0 8.0 0.00 0.00 0.00 58 1029.2
20191117143514 25 94 1.0 6.0 0.00 0.00 0.00 58 1029.1
20191117143014 25 79 1.0 6.0 0.00 0.00 0.00 59 1029.1
20191117142514 24 275 2.0 9.0 0.00 0.00 0.00 59 1029.2
20191117142014 24 139 2.0 9.0 0.00 0.00 0.00 59 1029.2
20191117141512 23 53 1.0 6.0 0.00 0.00 0.00 60 1029.3
20191117141012 23 51 1.0 6.0 0.00 0.00 0.00 61 1029.5
20191117140512 22 88 2.0 6.0 0.00 0.00 0.00 61 1029.5
20191117140012 22 61 2.0 6.0 0.00 0.00 0.00 63 1029.5
20191117135512 22 83 2.0 8.0 0.00 0.00 0.00 63 1029.6
20191117135012 21 93 2.0 8.0 0.00 0.00 0.00 65 1029.6
20191117134512 21 102 2.0 12.0 0.00 0.00 0.00 66 1029.7
20191117134012 20 90 2.0 12.0 0.00 0.00 0.00 67 1029.6
20191117133512 20 83 2.0 8.0 0.00 0.00 0.00 67 1029.6
20191117133012 20 44 2.0 6.0 0.00 0.00 0.00 68 1029.6
20191117132510 19 58 2.0 11.0 0.00 0.00 0.00 69 1029.5
20191117132010 19 77 2.0 11.0 0.00 0.00 0.00 70 1029.6
20191117131510 19 70 1.0 5.0 0.00 0.00 0.00 70 1029.6
20191117131010 19 61 1.0 5.0 0.00 0.00 0.00 71 1029.3
20191117130508 18 60 1.0 5.0 0.00 0.00 0.00 71 1029.5
20191117130008 18 38 1.0 6.0 0.00 0.00 0.00 71 1029.5
20191117125508 18 70 1.0 6.0 0.00 0.00 0.00 71 1029.6
20191117125006 18 69 1.0 4.0 0.00 0.00 0.00 72 1029.6
20191117124506 18 144 1.0 4.0 0.00 0.00 0.00 72 1029.5
20191117124006 18 125 1.0 5.0 0.00 0.00 0.00 72 1029.5
20191117123506 18 77 1.0 5.0 0.00 0.00 0.00 71 1029.6
20191117123006 17 61 1.0 4.0 0.00 0.00 0.00 71 1029.6
20191117122506 17 120 1.0 4.0 0.00 0.00 0.00 71 1029.7
20191117122006 17 29 1.0 4.0 0.00 0.00 0.00 71 1029.7
20191117121506 17 86 1.0 4.0 0.00 0.00 0.00 72 1029.8
20191117121006 17 58 0.0 4.0 0.00 0.00 0.00 72 1029.7
20191117120505 17 105 0.0 4.0 0.00 0.00 0.00 72 1029.6
20191117120006 17 102 1.0 4.0 0.00 0.00 0.00 71 1029.7
20191117115507 17 102 1.0 4.0 0.00 0.00 0.00 71 1029.7
20191117115003 17 91 1.0 4.0 0.00 0.00 0.00 71 1029.8
20191117114503 17 94 1.0 4.0 0.00 0.00 0.00 71 1029.8
20191117114004 17 106 1.0 6.0 0.00 0.00 0.00 71 1029.9
20191117113504 17 80 1.0 6.0 0.00 0.00 0.00 71 1029.9
20191117113003 17 134 0.0 5.0 0.00 0.00 0.00 71 1029.8
20191117112504 17 82 0.0 2.0 0.00 0.00 0.00 71 1029.8
20191117112004 17 115 0.0 2.0 0.00 0.00 0.00 71 1029.9
20191117111504 17 83 1.0 3.0 0.00 0.00 0.00 70 1029.9
20191117111004 17 77 1.0 3.0 0.00 0.00 0.00 70 1029.9
20191117110503 17 82 1.0 3.0 0.00 0.00 0.00 69 1029.9
20191117110002 17 79 1.0 3.0 0.00 0.00 0.00 69 1030.0
20191117105500 18 95 1.0 7.0 0.00 0.00 0.00 69 1030.1
20191117105000 18 88 1.0 7.0 0.00 0.00 0.00 68 1030.1
20191117104459 18 68 1.0 5.0 0.00 0.00 0.00 68 1030.1
20191117104000 18 100 1.0 5.0 0.00 0.00 0.00 67 1030.1
20191117103459 18 73 1.0 5.0 0.00 0.00 0.00 67 1030.0
20191117103000 18 75 1.0 4.0 0.00 0.00 0.00 67 1029.9
20191117102459 18 51 1.0 5.0 0.00 0.00 0.00 67 1030.0
20191117101959 18 96 0.0 6.0 0.00 0.00 0.00 67 1029.9
20191117101459 18 82 1.0 6.0 0.00 0.00 0.00 67 1030.1
20191117100957 18 101 1.0 5.0 0.00 0.00 0.00 67 1030.1
20191117100457 18 106 1.0 4.0 0.00 0.00 0.00 68 1030.1
20191117095957 18 106 0.0 4.0 0.00 0.00 0.00 68 1030.1
20191117095456 18 68 1.0 6.0 0.00 0.00 0.00 69 1030.0
20191117094953 18 90 1.0 6.0 0.00 0.00 0.00 69 1030.0
20191117094454 18 86 0.0 2.0 0.00 0.00 0.00 70 1030.0
20191117093952 18 98 0.0 2.0 0.00 0.00 0.00 70 1030.1
20191117093452 18 80 1.0 5.0 0.00 0.00 0.00 70 1030.1
20191117092952 18 90 1.0 6.0 0.00 0.00 0.00 70 1030.1
20191117092452 18 101 1.0 6.0 0.00 0.00 0.00 71 1030.0
20191117091953 18 98 1.0 6.0 0.00 0.00 0.00 72 1029.9
20191117091452 18 92 1.0 6.0 0.00 0.00 0.00 72 1029.9
20191117090952 18 105 1.0 6.0 0.00 0.00 0.00 72 1029.9
20191117090452 18 87 1.0 4.0 0.00 0.00 0.00 72 1029.9
20191117085952 18 86 1.0 4.0 0.00 0.00 0.00 73 1030.1
20191117085452 18 85 1.0 4.0 0.00 0.00 0.00 73 1030.2
20191117084952 18 78 1.0 3.0 0.00 0.00 0.00 73 1030.3
20191117084451 18 93 1.0 5.0 0.00 0.00 0.00 73 1030.3
20191117083951 18 131 1.0 5.0 0.00 0.00 0.00 73 1030.3
20191117083451 18 117 1.0 5.0 0.00 0.00 0.00 73 1030.3
20191117082951 18 87 1.0 5.0 0.00 0.00 0.00 72 1030.4
20191117082451 18 77 0.0 3.0 0.00 0.00 0.00 73 1030.5
20191117081951 18 90 0.0 0.0 0.00 0.00 0.00 72 1030.6
20191117081451 18 59 0.0 0.0 0.00 0.00 0.00 72 1030.7
20191117080951 18 72 0.0 0.0 0.00 0.00 0.00 72 1030.8
20191117080451 18 83 0.0 0.0 0.00 0.00 0.00 72 1030.8
20191117075952 18 101 0.0 0.0 0.00 0.00 0.00 71 1030.8
20191117075452 18 101 0.0 0.0 0.00 0.00 0.00 71 1030.8
20191117074952 18 82 0.0 0.0 0.00 0.00 0.00 71 1030.7
20191117074452 18 86 0.0 0.0 0.00 0.00 0.00 71 1030.7
20191117073952 18 86 0.0 0.0 0.00 0.00 0.00 70 1030.9
20191117073452 18 86 0.0 0.0 0.00 0.00 0.00 70 1030.9
20191117072952 18 113 0.0 0.0 0.00 0.00 0.00 71 1030.9
20191117072452 18 128 0.0 0.0 0.00 0.00 0.00 70 1030.9
20191117071952 18 107 0.0 0.0 0.00 0.00 0.00 70 1030.9
20191117071452 18 148 0.0 0.0 0.00 0.00 0.00 70 1030.8
20191117070952 19 120 0.0 1.0 0.00 0.00 0.00 69 1030.8
20191117070452 19 120 0.0 1.0 0.00 0.00 0.00 69 1030.8
20191117065951 19 101 0.0 1.0 0.00 0.00 0.00 69 1030.8
20191117065451 19 115 0.0 3.0 0.00 0.00 0.00 69 1030.7
20191117064951 19 126 0.0 3.0 0.00 0.00 0.00 69 1030.6
20191117064451 19 77 0.0 3.0 0.00 0.00 0.00 69 1030.7
20191117063951 19 131 0.0 1.0 0.00 0.00 0.00 69 1030.7
20191117063451 19 82 0.0 4.0 0.00 0.00 0.00 69 1030.7
20191117062947 19 97 0.0 4.0 0.00 0.00 0.00 68 1030.7
20191117062447 19 82 0.0 3.0 0.00 0.00 0.00 68 1030.7
20191117061947 19 44 0.0 2.0 0.00 0.00 0.00 68 1030.7
20191117061447 19 89 0.0 2.0 0.00 0.00 0.00 67 1030.8
20191117060946 19 154 0.0 4.0 0.00 0.00 0.00 67 1030.7
20191117060445 19 89 0.0 4.0 0.00 0.00 0.00 67 1030.7
20191117055946 19 64 0.0 4.0 0.00 0.00 0.00 67 1030.8
20191117055445 19 89 0.0 3.0 0.00 0.00 0.00 66 1030.9
20191117054945 19 94 0.0 4.0 0.00 0.00 0.00 67 1031.0
20191117054445 19 108 0.0 4.0 0.00 0.00 0.00 67 1030.9
20191117053946 19 108 0.0 1.0 0.00 0.00 0.00 67 1030.9
20191117053444 19 103 0.0 5.0 0.00 0.00 0.00 67 1030.8
20191117052944 19 115 0.0 5.0 0.00 0.00 0.00 67 1030.8
20191117052443 19 109 0.0 1.0 0.00 0.00 0.00 67 1030.9
20191117051941 19 58 0.0 1.0 0.00 0.00 0.00 67 1030.9
20191117051442 19 135 0.0 3.0 0.00 0.00 0.00 66 1030.9
20191117050942 19 65 0.0 5.0 0.00 0.00 0.00 66 1031.0
20191117050442 19 143 0.0 5.0 0.00 0.00 0.00 67 1031.1
20191117045941 20 113 0.0 3.0 0.00 0.00 0.00 66 1031.1
20191117045439 20 77 0.0 3.0 0.00 0.00 0.00 66 1031.1
20191117044939 20 37 0.0 3.0 0.00 0.00 0.00 66 1031.2
20191117044440 20 75 0.0 3.0 0.00 0.00 0.00 66 1031.2
20191117043940 20 96 0.0 5.0 0.00 0.00 0.00 66 1031.1
20191117043438 20 91 0.0 5.0 0.00 0.00 0.00 66 1031.2
20191117042937 20 82 0.0 4.0 0.00 0.00 0.00 66 1031.4
20191117042437 20 69 1.0 5.0 0.00 0.00 0.00 66 1031.5
20191117041937 20 127 0.0 5.0 0.00 0.00 0.00 67 1031.5
20191117041437 20 50 0.0 2.0 0.00 0.00 0.00 67 1031.6
20191117040937 20 108 0.0 1.0 0.00 0.00 0.00 67 1031.7
20191117040435 20 108 0.0 2.0 0.00 0.00 0.00 67 1031.7
20191117035935 20 108 0.0 2.0 0.00 0.00 0.00 67 1031.6
20191117035435 20 84 0.0 3.0 0.00 0.00 0.00 67 1031.7
20191117034935 20 77 0.0 3.0 0.00 0.00 0.00 67 1031.8
20191117034435 20 65 0.0 3.0 0.00 0.00 0.00 68 1031.9
20191117033933 20 125 0.0 3.0 0.00 0.00 0.00 68 1031.9
20191117033433 20 103 0.0 2.0 0.00 0.00 0.00 68 1031.9
20191117032933 20 95 0.0 2.0 0.00 0.00 0.00 68 1032.0
20191117032433 21 78 0.0 2.0 0.00 0.00 0.00 68 1032.1
20191117031933 21 68 0.0 1.0 0.00 0.00 0.00 69 1032.1
20191117031433 21 93 0.0 2.0 0.00 0.00 0.00 69 1032.3
20191117030933 21 105 0.0 2.0 0.00 0.00 0.00 70 1032.4
20191117030433 21 82 0.0 2.0 0.00 0.00 0.00 70 1032.5
20191117025933 21 110 0.0 5.0 0.00 0.00 0.00 71 1032.6
20191117025431 21 108 0.0 5.0 0.00 0.00 0.00 71 1032.6
20191117024931 21 77 0.0 2.0 0.00 0.00 0.00 71 1032.6
20191117024431 21 84 0.0 2.0 0.00 0.00 0.00 72 1032.7
20191117023931 21 60 0.0 5.0 0.00 0.00 0.00 73 1032.8
20191117023431 21 37 0.0 5.0 0.00 0.00 0.00 74 1032.8
20191117022931 20 76 0.0 0.0 0.00 0.00 0.00 75 1032.8
20191117022431 20 113 0.0 0.0 0.00 0.00 0.00 76 1032.9
20191117021931 20 83 0.0 0.0 0.00 0.00 0.00 76 1032.9
20191117021429 20 83 0.0 0.0 0.00 0.00 0.00 77 1032.9
20191117020929 19 87 0.0 0.0 0.00 0.00 0.00 77 1033.0
20191117020429 19 207 0.0 0.0 0.00 0.00 0.00 76 1033.0
20191117015929 20 207 0.0 0.0 0.00 0.00 0.00 75 1033.0
20191117015429 20 207 0.0 0.0 0.00 0.00 0.00 75 1033.0
20191117014929 20 226 0.0 0.0 0.00 0.00 0.00 74 1032.9
20191117014430 20 79 0.0 0.0 0.00 0.00 0.00 73 1032.8
20191117013929 20 79 0.0 0.0 0.00 0.00 0.00 72 1032.8
20191117013429 20 315 0.0 0.0 0.00 0.00 0.00 70 1032.8
20191117012929 20 314 0.0 0.0 0.00 0.00 0.00 70 1032.8
20191117012429 20 315 0.0 0.0 0.00 0.00 0.00 71 1032.7
20191117011929 20 315 0.0 0.0 0.00 0.00 0.00 69 1032.8
20191117011429 20 315 0.0 0.0 0.00 0.00 0.00 69 1032.8
20191117010929 21 315 0.0 0.0 0.00 0.01 0.00 68 1032.8
20191117010429 20 315 0.0 0.0 0.00 0.01 0.00 64 1032.8
20191117005929 21 314 0.0 0.0 0.00 0.01 0.00 63 1032.8
20191117005429 22 315 0.0 0.0 0.00 0.01 0.00 63 1032.8
20191117004928 22 315 0.0 0.0 0.00 0.01 0.00 61 1032.7
20191117004427 22 315 0.0 0.0 0.00 0.01 0.00 61 1032.7
20191117003926 22 315 0.0 0.0 0.00 0.01 0.00 62 1032.7
20191117003425 22 315 0.0 0.0 0.00 0.01 0.00 61 1032.7
20191117002925 22 315 0.0 0.0 0.00 0.01 0.00 60 1032.7
20191117002424 22 315 0.0 0.0 0.00 0.01 0.00 61 1032.8
20191117001926 22 315 0.0 0.0 0.00 0.01 0.00 61 1032.7
20191117001425 23 315 0.0 0.0 0.00 0.01 0.00 59 1032.7
20191117000925 23 315 0.0 0.0 0.00 0.01 0.00 59 1032.8
20191117000425 23 315 0.0 0.0 0.00 0.01 0.00 57 1032.8
20191116235925 23 315 0.0 0.0 0.00 0.01 0.00 56 1032.8
20191116235425 23 315 0.0 0.0 0.00 0.01 0.00 56 1032.8
20191116234923 23 315 0.0 0.0 0.00 0.01 0.00 56 1032.8
20191116234423 23 315 0.0 0.0 0.00 0.01 0.00 56 1032.7
20191116233923 23 317 0.0 0.0 0.00 0.01 0.00 56 1032.7
20191116233421 23 317 0.0 0.0 0.00 0.01 0.00 56 1032.7
20191116232921 23 317 0.0 0.0 0.00 0.01 0.00 55 1032.6
20191116232421 23 317 0.0 0.0 0.00 0.01 0.00 56 1032.5
20191116231921 23 317 0.0 0.0 0.00 0.01 0.00 58 1032.6
20191116231421 23 317 0.0 0.0 0.00 0.01 0.00 57 1032.6
20191116230918 23 317 0.0 0.0 0.00 0.01 0.00 58 1032.5
20191116230419 23 317 0.0 0.0 0.00 0.01 0.00 60 1032.5
20191116225918 24 317 0.0 0.0 0.00 0.01 0.00 58 1032.5
20191116225419 24 316 0.0 0.0 0.00 0.01 0.00 57 1032.6
20191116224918 24 316 0.0 0.0 0.00 0.01 0.00 57 1032.5
20191116224418 24 316 0.0 0.0 0.00 0.01 0.00 57 1032.5
20191116223918 24 316 0.0 0.0 0.00 0.01 0.00 56 1032.6
20191116223419 25 316 0.0 0.0 0.00 0.01 0.00 55 1032.5
20191116222918 25 316 0.0 0.0 0.00 0.01 0.00 55 1032.5
20191116222418 25 316 0.0 0.0 0.00 0.01 0.00 54 1032.5
20191116221917 25 316 0.0 0.0 0.00 0.01 0.00 54 1032.6
20191116221416 26 316 0.0 0.0 0.00 0.01 0.00 52 1032.5
20191116220916 26 316 0.0 0.0 0.00 0.01 0.00 54 1032.4
20191116220416 26 316 0.0 0.0 0.00 0.01 0.00 51 1032.3
20191116215916 26 316 0.0 0.0 0.00 0.01 0.00 51 1032.2
20191116215416 27 316 0.0 0.0 0.00 0.01 0.00 51 1032.4
20191116214917 27 316 0.0 0.0 0.00 0.02 0.00 51 1032.4
20191116214417 27 316 0.0 0.0 0.00 0.02 0.00 51 1032.3
20191116213917 28 316 0.0 0.0 0.00 0.02 0.00 51 1032.3
20191116213416 28 316 0.0 0.0 0.00 0.02 0.00 50 1032.3
20191116212917 28 316 0.0 0.0 0.00 0.02 0.00 47 1032.3
20191116212417 29 321 0.0 0.0 0.00 0.02 0.00 46 1032.3
20191116211916 29 321 0.0 0.0 0.00 0.02 0.00 45 1032.3
20191116211418 29 321 0.0 0.0 0.00 0.02 0.00 45 1032.3
20191116210916 29 278 0.0 0.0 0.00 0.02 0.00 45 1032.3
20191116210417 30 283 0.0 0.0 0.00 0.02 0.00 44 1032.2
20191116205916 30 203 0.0 0.0 0.00 0.02 0.00 43 1032.2
20191116205417 31 203 0.0 0.0 0.00 0.02 0.00 42 1032.2
20191116204916 31 201 0.0 0.0 0.00 0.02 0.00 42 1032.2
20191116204417 31 270 0.0 0.0 0.00 0.02 0.00 42 1032.2
20191116203916 32 189 0.0 0.0 0.00 0.02 0.00 41 1032.3
20191116203418 32 188 0.0 0.0 0.00 0.02 0.00 40 1032.3
20191116202916 31 233 0.0 0.0 0.00 0.02 0.00 41 1032.3
20191116202418 31 206 0.0 0.0 0.00 0.02 0.00 41 1032.4
20191116201916 32 224 0.0 0.0 0.00 0.03 0.00 41 1032.3
20191116201418 33 216 0.0 0.0 0.00 0.03 0.00 39 1032.4
20191116200917 33 92 0.0 0.0 0.00 0.03 0.00 41 1032.5
20191116200418 32 92 0.0 0.0 0.00 0.03 0.00 39 1032.5
20191116195917 32 84 0.0 0.0 0.00 0.03 0.00 40 1032.5
20191116195418 32 67 0.0 0.0 0.00 0.03 0.00 41 1032.5
20191116194916 33 300 0.0 0.0 0.00 0.03 0.00 43 1032.6
20191116194418 32 304 0.0 1.0 0.00 0.03 0.00 44 1032.6
20191116193914 31 306 1.0 3.0 0.00 0.03 0.00 43 1032.6
20191116193414 31 75 1.0 4.0 0.00 0.03 0.00 44 1032.7
20191116192914 31 105 1.0 4.0 0.00 0.03 0.00 41 1032.7
20191116192415 31 108 0.0 2.0 0.00 0.04 0.00 44 1032.8
20191116191914 31 94 0.0 2.0 0.00 0.04 0.00 44 1032.8
20191116191414 31 79 0.0 2.0 0.00 0.04 0.00 43 1032.8
20191116190914 30 115 0.0 2.0 0.00 0.04 0.00 43 1032.7
20191116190412 30 20 1.0 3.0 0.00 0.04 0.00 45 1032.7
20191116185912 30 301 1.0 3.0 0.00 0.04 0.00 44 1032.8
20191116185412 30 356 0.0 2.0 0.00 0.04 0.00 46 1032.7
20191116184912 29 284 0.0 2.0 0.00 0.04 0.00 44 1032.8
20191116184412 29 308 0.0 3.0 0.00 0.04 0.00 47 1032.9
20191116183912 29 311 0.0 3.0 0.00 0.05 0.00 45 1032.9
20191116183412 29 347 1.0 3.0 0.00 0.05 0.00 50 1033.0
20191116182913 29 240 1.0 3.0 0.00 0.05 0.00 46 1033.1
20191116182410 29 337 0.0 3.0 0.00 0.05 0.00 47 1033.2
20191116181910 29 10 0.0 2.0 0.00 0.05 0.00 48 1033.2
20191116181408 29 331 0.0 2.0 0.00 0.05 0.00 48 1033.3
20191116180908 28 47 1.0 2.0 0.00 0.05 0.00 47 1033.4
20191116180409 28 38 1.0 2.0 0.00 0.06 0.00 48 1033.4
20191116175907 28 7 1.0 3.0 0.00 0.06 0.00 48 1033.5
20191116175407 28 320 1.0 3.0 0.00 0.06 0.00 49 1033.5
20191116174906 27 42 1.0 3.0 0.00 0.06 0.00 49 1033.7
20191116174407 27 290 0.0 4.0 0.00 0.06 0.00 49 1033.7
20191116173906 28 305 0.0 4.0 0.00 0.07 0.00 49 1033.8